| time (UTC) | temp C | wind direction | speed KPH | gust KPH | rain 1hr cm | rain 24hr cm | rain mn cm | humidity % | barometer mb |
| 20260503051313 | 0 | 22 | 1.6 | 3.2 | 0.00 | 0.00 | 0.00 | 85 | 1011.0 |
| 20260503050819 | 0 | 22 | 1.6 | 1.6 | 0.00 | 0.00 | 0.00 | 85 | 1011.0 |
| 20260503050347 | 0 | 20 | 0.0 | 1.6 | 0.00 | 0.00 | 0.00 | 84 | 1011.1 |
| 20260503045836 | 0 | 21 | 0.0 | 1.6 | 0.00 | 0.00 | 0.00 | 84 | 1011.1 |
| 20260503045323 | 0 | 20 | 0.0 | 3.2 | 0.00 | 0.00 | 0.00 | 83 | 1011.2 |
| 20260503044832 | 0 | 20 | 0.0 | 3.2 | 0.00 | 0.00 | 0.00 | 82 | 1011.2 |
| 20260503044320 | 1 | 20 | 0.0 | 3.2 | 0.00 | 0.00 | 0.00 | 83 | 1011.2 |
| 20260503043823 | 1 | 17 | 1.6 | 3.2 | 0.00 | 0.00 | 0.00 | 83 | 1011.3 |
| 20260503043332 | 1 | 360 | 1.6 | 3.2 | 0.00 | 0.00 | 0.00 | 83 | 1011.3 |
| 20260503042820 | 1 | 21 | 1.6 | 4.8 | 0.00 | 0.00 | 0.00 | 82 | 1011.4 |
| 20260503042330 | 1 | 329 | 3.2 | 4.8 | 0.00 | 0.00 | 0.00 | 83 | 1011.4 |
| 20260503041818 | 1 | 53 | 0.0 | 6.4 | 0.00 | 0.00 | 0.00 | 83 | 1011.4 |
| 20260503041325 | 1 | 49 | 3.2 | 6.4 | 0.00 | 0.00 | 0.00 | 83 | 1011.4 |
| 20260503040853 | 1 | 80 | 3.2 | 6.4 | 0.00 | 0.08 | 0.00 | 84 | 1011.5 |
| 20260503040336 | 1 | 71 | 4.8 | 6.4 | 0.00 | 0.08 | 0.00 | 84 | 1011.5 |
| 20260503035818 | 0 | 75 | 3.2 | 6.4 | 0.00 | 0.08 | 0.00 | 85 | 1011.5 |
| 20260503035326 | 0 | 63 | 3.2 | 6.4 | 0.00 | 0.08 | 0.00 | 86 | 1011.5 |
| 20260503034816 | 0 | 56 | 3.2 | 4.8 | 0.00 | 0.08 | 0.00 | 85 | 1011.4 |
| 20260503034324 | 0 | 74 | 1.6 | 4.8 | 0.00 | 0.08 | 0.00 | 85 | 1011.4 |
| 20260503033813 | 0 | 104 | 0.0 | 3.2 | 0.00 | 0.08 | 0.00 | 85 | 1011.5 |
| 20260503033323 | 0 | 109 | 1.6 | 3.2 | 0.00 | 0.08 | 0.00 | 84 | 1011.5 |
| 20260503032831 | 0 | 109 | 1.6 | 3.2 | 0.00 | 0.08 | 0.00 | 84 | 1011.5 |
| 20260503032316 | 0 | 109 | 1.6 | 3.2 | 0.00 | 0.08 | 0.00 | 83 | 1011.5 |
| 20260503031825 | 0 | 109 | 1.6 | 4.8 | 0.00 | 0.08 | 0.00 | 82 | 1011.5 |
| 20260503031335 | 1 | 109 | 1.6 | 4.8 | 0.00 | 0.08 | 0.00 | 83 | 1011.5 |
| 20260503030836 | 1 | 61 | 0.0 | 1.6 | 0.00 | 0.10 | 0.00 | 82 | 1011.5 |
| 20260503030318 | 1 | 61 | 0.0 | 0.0 | 0.00 | 0.10 | 0.00 | 82 | 1011.5 |
| 20260503025828 | 1 | 61 | 0.0 | 3.2 | 0.00 | 0.10 | 0.00 | 81 | 1011.6 |
| 20260503025328 | 1 | 61 | 1.6 | 3.2 | 0.00 | 0.10 | 0.00 | 80 | 1011.5 |
| 20260503024832 | 1 | 61 | 0.0 | 3.2 | 0.00 | 0.10 | 0.00 | 81 | 1011.5 |
| 20260503024320 | 1 | 61 | 0.0 | 3.2 | 0.00 | 0.10 | 0.00 | 81 | 1011.4 |
| 20260503023830 | 1 | 61 | 1.6 | 3.2 | 0.00 | 0.10 | 0.00 | 81 | 1011.4 |
| 20260503023318 | 1 | 31 | 1.6 | 3.2 | 0.00 | 0.10 | 0.00 | 79 | 1011.4 |
| 20260503022826 | 1 | 31 | 0.0 | 1.6 | 0.00 | 0.10 | 0.00 | 78 | 1011.4 |
| 20260503022314 | 2 | 31 | 0.0 | 1.6 | 0.00 | 0.10 | 0.00 | 79 | 1011.4 |
| 20260503021824 | 2 | 31 | 0.0 | 1.6 | 0.00 | 0.10 | 0.00 | 78 | 1011.5 |
| 20260503021313 | 2 | 35 | 0.0 | 1.6 | 0.00 | 0.10 | 0.00 | 77 | 1011.5 |
| 20260503020818 | 2 | 35 | 0.0 | 3.2 | 0.00 | 0.15 | 0.00 | 76 | 1011.5 |
| 20260503020326 | 2 | 35 | 0.0 | 3.2 | 0.00 | 0.15 | 0.00 | 75 | 1011.5 |
| 20260503015815 | 2 | 26 | 0.0 | 3.2 | 0.00 | 0.15 | 0.00 | 74 | 1011.4 |
| 20260503015347 | 3 | 327 | 1.6 | 1.6 | 0.00 | 0.15 | 0.00 | 73 | 1011.5 |
| 20260503014814 | 3 | 327 | 0.0 | 0.0 | 0.00 | 0.15 | 0.00 | 72 | 1011.4 |
| 20260503014322 | 3 | 327 | 0.0 | 0.0 | 0.00 | 0.15 | 0.00 | 71 | 1011.4 |
| 20260503013852 | 3 | 327 | 0.0 | 0.0 | 0.00 | 0.15 | 0.00 | 70 | 1011.4 |
| 20260503013337 | 3 | 327 | 0.0 | 0.0 | 0.00 | 0.15 | 0.00 | 69 | 1011.4 |
| 20260503012825 | 4 | 327 | 0.0 | 0.0 | 0.00 | 0.15 | 0.00 | 68 | 1011.3 |
| 20260503012353 | 5 | 327 | 0.0 | 1.6 | 0.00 | 0.15 | 0.00 | 67 | 1011.3 |
| 20260503011821 | 5 | 327 | 0.0 | 3.2 | 0.00 | 0.15 | 0.00 | 68 | 1011.3 |
| 20260503011330 | 5 | 327 | 1.6 | 3.2 | 0.00 | 0.15 | 0.00 | 67 | 1011.3 |
| 20260503010820 | 5 | 342 | 1.6 | 3.2 | 0.00 | 0.18 | 0.00 | 67 | 1011.2 |
| 20260503010328 | 5 | 345 | 1.6 | 3.2 | 0.00 | 0.18 | 0.00 | 67 | 1011.2 |
| 20260503005831 | 5 | 355 | 0.0 | 4.8 | 0.00 | 0.18 | 0.00 | 67 | 1011.2 |
| 20260503005321 | 5 | 355 | 1.6 | 4.8 | 0.00 | 0.18 | 0.00 | 66 | 1011.2 |
| 20260503004828 | 5 | 343 | 1.6 | 3.2 | 0.00 | 0.18 | 0.00 | 66 | 1011.1 |
| 20260503004317 | 5 | 340 | 1.6 | 8.0 | 0.00 | 0.18 | 0.00 | 67 | 1011.1 |
| 20260503003824 | 5 | 339 | 1.6 | 9.7 | 0.00 | 0.18 | 0.00 | 66 | 1011.0 |
| 20260503003313 | 5 | 332 | 4.8 | 9.7 | 0.00 | 0.18 | 0.00 | 66 | 1011.0 |
| 20260503002821 | 5 | 345 | 3.2 | 6.4 | 0.00 | 0.18 | 0.00 | 66 | 1011.1 |
| 20260503002329 | 5 | 360 | 3.2 | 9.7 | 0.00 | 0.18 | 0.00 | 66 | 1011.0 |
| 20260503001853 | 5 | 339 | 4.8 | 9.7 | 0.00 | 0.18 | 0.00 | 65 | 1010.9 |
| 20260503001320 | 5 | 355 | 4.8 | 12.9 | 0.00 | 0.18 | 0.00 | 65 | 1010.8 |
| 20260503000830 | 6 | 355 | 4.8 | 12.9 | 0.00 | 0.18 | 0.00 | 64 | 1010.9 |
| 20260503000319 | 6 | 11 | 3.2 | 11.3 | 0.00 | 0.18 | 0.00 | 63 | 1010.8 |
| 20260502235826 | 6 | 336 | 3.2 | 9.7 | 0.00 | 0.18 | 0.00 | 63 | 1010.8 |
| 20260502235327 | 6 | 314 | 4.8 | 14.5 | 0.00 | 0.18 | 0.00 | 62 | 1010.7 |
| 20260502234836 | 6 | 281 | 6.4 | 14.5 | 0.00 | 0.18 | 0.00 | 61 | 1010.7 |
| 20260502234316 | 6 | 348 | 8.0 | 12.9 | 0.00 | 0.18 | 0.00 | 61 | 1010.6 |
| 20260502233844 | 6 | 349 | 3.2 | 16.1 | 0.00 | 0.18 | 0.00 | 61 | 1010.7 |
| 20260502233330 | 7 | 310 | 8.0 | 17.7 | 0.00 | 0.18 | 0.00 | 60 | 1010.7 |
| 20260502232817 | 7 | 280 | 4.8 | 17.7 | 0.00 | 0.18 | 0.00 | 59 | 1010.6 |
| 20260502232325 | 7 | 279 | 8.0 | 12.9 | 0.00 | 0.18 | 0.00 | 59 | 1010.6 |
| 20260502231813 | 7 | 297 | 6.4 | 14.5 | 0.00 | 0.18 | 0.00 | 58 | 1010.5 |
| 20260502231341 | 7 | 288 | 8.0 | 16.1 | 0.00 | 0.18 | 0.00 | 58 | 1010.5 |
| 20260502230825 | 7 | 303 | 8.0 | 19.3 | 0.00 | 0.18 | 0.00 | 56 | 1010.4 |
| 20260502230312 | 7 | 280 | 8.0 | 20.9 | 0.00 | 0.18 | 0.00 | 55 | 1010.3 |
| 20260502225823 | 7 | 305 | 12.9 | 19.3 | 0.00 | 0.18 | 0.00 | 55 | 1010.3 |
| 20260502225332 | 7 | 284 | 9.7 | 19.3 | 0.00 | 0.18 | 0.00 | 55 | 1010.4 |
| 20260502224822 | 7 | 360 | 8.0 | 24.1 | 0.00 | 0.18 | 0.00 | 55 | 1010.3 |
| 20260502224332 | 7 | 344 | 6.4 | 19.3 | 0.00 | 0.18 | 0.00 | 55 | 1010.4 |
| 20260502223840 | 7 | 315 | 11.3 | 17.7 | 0.00 | 0.18 | 0.00 | 55 | 1010.3 |
| 20260502223343 | 7 | 299 | 9.7 | 17.7 | 0.00 | 0.18 | 0.00 | 54 | 1010.2 |
| 20260502222831 | 7 | 318 | 11.3 | 17.7 | 0.00 | 0.18 | 0.00 | 53 | 1010.3 |
| 20260502222339 | 7 | 310 | 8.0 | 11.3 | 0.00 | 0.18 | 0.00 | 53 | 1010.3 |
| 20260502221827 | 7 | 333 | 8.0 | 19.3 | 0.00 | 0.18 | 0.00 | 53 | 1010.3 |
| 20260502221335 | 7 | 271 | 9.7 | 20.9 | 0.00 | 0.18 | 0.00 | 53 | 1010.2 |
| 20260502220825 | 7 | 277 | 12.9 | 20.9 | 0.00 | 0.18 | 0.00 | 52 | 1010.2 |
| 20260502220348 | 7 | 284 | 6.4 | 14.5 | 0.00 | 0.18 | 0.00 | 53 | 1010.1 |
| 20260502215837 | 7 | 347 | 8.0 | 16.1 | 0.00 | 0.18 | 0.00 | 52 | 1010.1 |
| 20260502215324 | 7 | 317 | 8.0 | 17.7 | 0.00 | 0.18 | 0.00 | 51 | 1010.1 |
| 20260502214832 | 7 | 327 | 6.4 | 17.7 | 0.00 | 0.18 | 0.00 | 52 | 1010.1 |
| 20260502214315 | 7 | 280 | 6.4 | 16.1 | 0.00 | 0.18 | 0.00 | 51 | 1010.1 |
| 20260502213823 | 7 | 327 | 8.0 | 24.1 | 0.00 | 0.18 | 0.00 | 51 | 1010.1 |
| 20260502213313 | 7 | 263 | 6.4 | 24.1 | 0.00 | 0.18 | 0.00 | 50 | 1010.0 |
| 20260502212829 | 7 | 307 | 8.0 | 17.7 | 0.00 | 0.18 | 0.00 | 50 | 1010.1 |
| 20260502212340 | 7 | 313 | 8.0 | 17.7 | 0.00 | 0.18 | 0.00 | 50 | 1010.0 |
| 20260502211821 | 7 | 291 | 9.7 | 19.3 | 0.00 | 0.18 | 0.00 | 50 | 1009.9 |
| 20260502211329 | 7 | 264 | 6.4 | 24.1 | 0.00 | 0.18 | 0.00 | 50 | 1009.9 |
| 20260502210818 | 7 | 276 | 6.4 | 24.1 | 0.00 | 0.18 | 0.00 | 49 | 1010.0 |
| 20260502210325 | 8 | 301 | 14.5 | 20.9 | 0.00 | 0.18 | 0.00 | 49 | 1009.8 |
| 20260502205850 | 8 | 310 | 9.7 | 17.7 | 0.00 | 0.18 | 0.00 | 49 | 1009.8 |
| 20260502205317 | 8 | 299 | 11.3 | 17.7 | 0.00 | 0.18 | 0.00 | 49 | 1009.8 |
| 20260502204827 | 8 | 322 | 4.8 | 17.7 | 0.00 | 0.18 | 0.00 | 49 | 1009.8 |
| 20260502204315 | 8 | 259 | 8.0 | 19.3 | 0.00 | 0.18 | 0.00 | 48 | 1009.9 |
| 20260502203822 | 8 | 304 | 11.3 | 19.3 | 0.00 | 0.18 | 0.00 | 49 | 1009.9 |
| 20260502203314 | 8 | 316 | 11.3 | 17.7 | 0.00 | 0.18 | 0.00 | 48 | 1009.8 |
| 20260502202822 | 8 | 294 | 6.4 | 16.1 | 0.00 | 0.18 | 0.00 | 48 | 1009.8 |
| 20260502202331 | 8 | 278 | 9.7 | 20.9 | 0.00 | 0.18 | 0.00 | 48 | 1009.9 |
| 20260502201818 | 8 | 246 | 8.0 | 20.9 | 0.00 | 0.18 | 0.00 | 48 | 1009.9 |
| 20260502201324 | 8 | 249 | 9.7 | 20.9 | 0.00 | 0.18 | 0.00 | 47 | 1009.9 |
| 20260502200830 | 8 | 286 | 6.4 | 24.1 | 0.00 | 0.18 | 0.00 | 47 | 1010.1 |
| 20260502200319 | 8 | 263 | 16.1 | 27.4 | 0.00 | 0.18 | 0.00 | 48 | 1010.1 |
| 20260502195828 | 8 | 312 | 17.7 | 32.2 | 0.00 | 0.18 | 0.00 | 47 | 1010.1 |
| 20260502195317 | 8 | 288 | 16.1 | 32.2 | 0.00 | 0.18 | 0.00 | 48 | 1010.1 |
| 20260502194825 | 8 | 282 | 9.7 | 17.7 | 0.00 | 0.18 | 0.00 | 50 | 1010.2 |
| 20260502194315 | 8 | 277 | 9.7 | 19.3 | 0.00 | 0.18 | 0.00 | 50 | 1010.3 |
| 20260502193824 | 8 | 296 | 11.3 | 19.3 | 0.00 | 0.18 | 0.00 | 51 | 1010.4 |
| 20260502193349 | 8 | 311 | 11.3 | 20.9 | 0.00 | 0.18 | 0.00 | 51 | 1010.4 |
| 20260502192838 | 8 | 355 | 16.1 | 27.4 | 0.00 | 0.18 | 0.00 | 49 | 1010.4 |
| 20260502192318 | 8 | 261 | 12.9 | 27.4 | 0.00 | 0.18 | 0.00 | 47 | 1010.5 |
| 20260502191827 | 9 | 288 | 16.1 | 29.0 | 0.00 | 0.18 | 0.00 | 48 | 1010.5 |
| 20260502191316 | 9 | 292 | 14.5 | 29.0 | 0.00 | 0.18 | 0.00 | 47 | 1010.5 |
| 20260502190824 | 8 | 209 | 9.7 | 20.9 | 0.00 | 0.18 | 0.00 | 49 | 1010.4 |
| 20260502190316 | 8 | 320 | 9.7 | 25.7 | 0.00 | 0.18 | 0.00 | 49 | 1010.5 |
| 20260502185822 | 8 | 5 | 12.9 | 25.7 | 0.00 | 0.18 | 0.00 | 50 | 1010.6 |
| 20260502185330 | 8 | 278 | 16.1 | 29.0 | 0.00 | 0.18 | 0.00 | 48 | 1010.5 |
| 20260502184818 | 8 | 273 | 17.7 | 29.0 | 0.00 | 0.18 | 0.00 | 47 | 1010.7 |
| 20260502184319 | 8 | 277 | 9.7 | 17.7 | 0.00 | 0.18 | 0.00 | 50 | 1010.6 |
| 20260502183849 | 8 | 302 | 11.3 | 17.7 | 0.00 | 0.18 | 0.00 | 51 | 1010.6 |
| 20260502183317 | 8 | 345 | 9.7 | 17.7 | 0.00 | 0.18 | 0.00 | 52 | 1010.5 |
| 20260502182827 | 8 | 349 | 9.7 | 24.1 | 0.00 | 0.18 | 0.00 | 51 | 1010.5 |
| 20260502182331 | 8 | 290 | 14.5 | 24.1 | 0.00 | 0.18 | 0.00 | 50 | 1010.6 |
| 20260502181820 | 7 | 299 | 6.4 | 22.5 | 0.00 | 0.18 | 0.00 | 52 | 1010.6 |
| 20260502181326 | 8 | 333 | 14.5 | 22.5 | 0.00 | 0.18 | 0.00 | 51 | 1010.5 |
| 20260502180815 | 8 | 328 | 12.9 | 22.5 | 0.00 | 0.18 | 0.00 | 51 | 1010.5 |
| 20260502180323 | 8 | 342 | 14.5 | 24.1 | 0.00 | 0.18 | 0.00 | 51 | 1010.6 |
| 20260502170328 | 8 | 360 | 16.1 | 25.7 | 0.00 | 0.18 | 0.00 | 50 | 1010.5 |
| 20260502164332 | 8 | 283 | 17.7 | 30.6 | 0.00 | 0.18 | 0.00 | 50 | 1010.6 |
| 20260502163817 | 8 | 311 | 16.1 | 29.0 | 0.00 | 0.18 | 0.00 | 51 | 1010.7 |
| 20260502163344 | 8 | 313 | 19.3 | 29.0 | 0.00 | 0.18 | 0.00 | 52 | 1010.8 |
| 20260502162831 | 8 | 258 | 11.3 | 20.9 | 0.00 | 0.18 | 0.00 | 53 | 1010.6 |
| 20260502162319 | 8 | 290 | 14.5 | 27.4 | 0.00 | 0.18 | 0.00 | 53 | 1010.7 |
| 20260502161826 | 7 | 302 | 16.1 | 27.4 | 0.00 | 0.18 | 0.00 | 52 | 1010.7 |
| 20260502161314 | 7 | 293 | 17.7 | 27.4 | 0.00 | 0.18 | 0.00 | 53 | 1010.7 |
| 20260502160824 | 7 | 308 | 16.1 | 32.2 | 0.00 | 0.18 | 0.00 | 53 | 1010.7 |
| 20260502160328 | 7 | 305 | 20.9 | 32.2 | 0.00 | 0.18 | 0.00 | 52 | 1010.7 |
| 20260502152322 | 7 | 286 | 11.3 | 19.3 | 0.00 | 0.18 | 0.00 | 63 | 1010.9 |
| 20260502151829 | 7 | 306 | 9.7 | 20.9 | 0.00 | 0.18 | 0.00 | 66 | 1010.9 |
| 20260502151318 | 6 | 313 | 14.5 | 20.9 | 0.00 | 0.18 | 0.00 | 63 | 1011.0 |
| 20260502150827 | 7 | 22 | 9.7 | 19.3 | 0.00 | 0.18 | 0.00 | 64 | 1010.9 |
| 20260502150316 | 7 | 348 | 14.5 | 19.3 | 0.00 | 0.18 | 0.00 | 63 | 1010.8 |
| 20260502130322 | 5 | 323 | 4.8 | 12.9 | 0.00 | 0.18 | 0.00 | 81 | 1011.1 |
| 20260502123321 | 5 | 309 | 4.8 | 11.3 | 0.00 | 0.18 | 0.00 | 85 | 1011.0 |
| 20260502122832 | 5 | 336 | 4.8 | 11.3 | 0.00 | 0.18 | 0.00 | 85 | 1011.0 |
| 20260502122337 | 5 | 332 | 3.2 | 11.3 | 0.00 | 0.18 | 0.00 | 86 | 1010.9 |
| 20260502121823 | 5 | 336 | 3.2 | 11.3 | 0.00 | 0.18 | 0.00 | 85 | 1010.9 |
| 20260502121330 | 5 | 299 | 6.4 | 19.3 | 0.00 | 0.18 | 0.00 | 85 | 1010.9 |
| 20260502120819 | 5 | 306 | 6.4 | 19.3 | 0.00 | 0.18 | 0.00 | 85 | 1011.0 |
| 20260502120326 | 5 | 330 | 8.0 | 11.3 | 0.00 | 0.18 | 0.00 | 86 | 1011.1 |
| 20260502115815 | 5 | 308 | 4.8 | 9.7 | 0.00 | 0.18 | 0.00 | 87 | 1011.1 |
| 20260502115322 | 5 | 264 | 4.8 | 9.7 | 0.00 | 0.18 | 0.00 | 87 | 1011.0 |
| 20260502114827 | 5 | 296 | 4.8 | 9.7 | 0.00 | 0.18 | 0.00 | 87 | 1011.0 |
| 20260502114335 | 5 | 285 | 6.4 | 9.7 | 0.00 | 0.18 | 0.00 | 87 | 1011.0 |
| 20260502113841 | 5 | 279 | 3.2 | 6.4 | 0.00 | 0.18 | 0.00 | 88 | 1011.0 |
| 20260502113350 | 5 | 336 | 3.2 | 12.9 | 0.00 | 0.18 | 0.00 | 87 | 1010.9 |
| 20260502112839 | 4 | 317 | 3.2 | 12.9 | 0.00 | 0.18 | 0.00 | 87 | 1010.9 |
| 20260502112326 | 4 | 279 | 4.8 | 9.7 | 0.00 | 0.18 | 0.00 | 87 | 1011.0 |
| 20260502111830 | 4 | 328 | 4.8 | 9.7 | 0.00 | 0.18 | 0.00 | 87 | 1011.0 |
| 20260502111324 | 4 | 283 | 4.8 | 8.0 | 0.00 | 0.18 | 0.00 | 92 | 1011.0 |
| 20260502110813 | 4 | 294 | 3.2 | 8.0 | 0.00 | 0.18 | 0.00 | 88 | 1011.0 |
| 20260502110321 | 4 | 321 | 3.2 | 6.4 | 0.00 | 0.18 | 0.00 | 87 | 1010.8 |
| 20260502105831 | 4 | 291 | 1.6 | 6.4 | 0.00 | 0.18 | 0.00 | 87 | 1010.7 |
| 20260502105332 | 4 | 332 | 3.2 | 6.4 | 0.00 | 0.18 | 0.00 | 88 | 1010.6 |
| 20260502104820 | 4 | 334 | 1.6 | 3.2 | 0.00 | 0.18 | 0.00 | 88 | 1010.6 |
| 20260502104326 | 4 | 334 | 0.0 | 3.2 | 0.00 | 0.18 | 0.00 | 88 | 1010.5 |
| 20260502103813 | 4 | 334 | 1.6 | 4.8 | 0.00 | 0.18 | 0.00 | 88 | 1010.6 |
| 20260502103322 | 4 | 334 | 1.6 | 4.8 | 0.00 | 0.18 | 0.00 | 88 | 1010.6 |
| 20260502102850 | 4 | 340 | 1.6 | 3.2 | 0.00 | 0.18 | 0.00 | 88 | 1010.6 |
| 20260502102317 | 4 | 340 | 0.0 | 3.2 | 0.00 | 0.18 | 0.00 | 89 | 1010.5 |
| 20260502101825 | 4 | 340 | 0.0 | 4.8 | 0.00 | 0.18 | 0.00 | 89 | 1010.5 |
| 20260502101334 | 4 | 339 | 0.0 | 4.8 | 0.00 | 0.18 | 0.00 | 89 | 1010.4 |
| 20260502100818 | 4 | 340 | 1.6 | 3.2 | 0.00 | 0.18 | 0.00 | 89 | 1010.4 |
| 20260502100320 | 4 | 336 | 3.2 | 3.2 | 0.00 | 0.18 | 0.00 | 89 | 1010.4 |
| 20260502091318 | 4 | 338 | 0.0 | 4.8 | 0.00 | 0.18 | 0.00 | 90 | 1009.9 |
| 20260502090828 | 4 | 23 | 1.6 | 4.8 | 0.00 | 0.18 | 0.00 | 90 | 1009.8 |
| 20260502090316 | 4 | 18 | 3.2 | 8.0 | 0.00 | 0.18 | 0.00 | 90 | 1009.7 |
| 20260502071323 | 4 | 26 | 3.2 | 4.8 | 0.00 | 0.18 | 0.00 | 91 | 1009.3 |
| 20260502070832 | 4 | 28 | 1.6 | 4.8 | 0.00 | 0.18 | 0.00 | 91 | 1009.6 |
| 20260502070316 | 4 | 22 | 3.2 | 8.0 | 0.00 | 0.18 | 0.00 | 91 | 1009.5 |
| 20260502065826 | 4 | 22 | 3.2 | 8.0 | 0.00 | 0.18 | 0.00 | 91 | 1009.4 |
| 20260502065332 | 4 | 12 | 4.8 | 8.0 | 0.00 | 0.18 | 0.00 | 91 | 1009.5 |
| 20260502064822 | 4 | 350 | 3.2 | 9.7 | 0.00 | 0.18 | 0.00 | 91 | 1009.6 |
| 20260502064330 | 4 | 24 | 6.4 | 12.9 | 0.00 | 0.18 | 0.00 | 91 | 1009.5 |
| 20260502063820 | 4 | 12 | 6.4 | 12.9 | 0.00 | 0.18 | 0.00 | 91 | 1009.2 |
| 20260502063329 | 5 | 25 | 8.0 | 16.1 | 0.00 | 0.18 | 0.00 | 91 | 1009.4 |
| 20260502062816 | 5 | 5 | 9.7 | 19.3 | 0.00 | 0.18 | 0.00 | 91 | 1009.3 |
| 20260502062322 | 5 | 17 | 9.7 | 20.9 | 0.00 | 0.18 | 0.00 | 90 | 1009.3 |
| 20260502061831 | 5 | 5 | 9.7 | 24.1 | 0.00 | 0.18 | 0.00 | 90 | 1009.3 |
| 20260502061323 | 6 | 360 | 11.3 | 24.1 | 0.00 | 0.18 | 0.00 | 89 | 1009.3 |
| 20260502060830 | 6 | 320 | 14.5 | 20.9 | 0.00 | 0.18 | 0.00 | 91 | 1009.2 |
| 20260502060320 | 6 | 235 | 4.8 | 8.0 | 0.00 | 0.18 | 0.00 | 91 | 1009.1 |
| 20260502055830 | 6 | 275 | 1.6 | 4.8 | 0.00 | 0.18 | 0.00 | 91 | 1009.0 |
| 20260502055316 | 6 | 271 | 0.0 | 4.8 | 0.00 | 0.18 | 0.00 | 91 | 1009.0 |
| 20260502054824 | 6 | 268 | 1.6 | 4.8 | 0.00 | 0.18 | 0.00 | 91 | 1008.9 |
| 20260502054348 | 6 | 211 | 3.2 | 4.8 | 0.00 | 0.18 | 0.00 | 91 | 1009.0 |
| 20260502053816 | 6 | 200 | 0.0 | 3.2 | 0.00 | 0.18 | 0.00 | 91 | 1009.1 |
| 20260502053323 | 6 | 207 | 1.6 | 4.8 | 0.00 | 0.18 | 0.00 | 91 | 1009.1 |
| 20260502052813 | 6 | 207 | 3.2 | 8.0 | 0.00 | 0.18 | 0.00 | 91 | 1009.2 |
| 20260502052323 | 6 | 191 | 3.2 | 8.0 | 0.00 | 0.18 | 0.00 | 91 | 1009.4 |
| 20260502051830 | 6 | 193 | 4.8 | 9.7 | 0.00 | 0.18 | 0.00 | 91 | 1009.4 |